Regional Weather Roundup
Issued by NWS Kansas City/Pleasant Hill, MO

Home | Current Version | Previous Version | Text Only | Print | Product List | Glossary On
Versions: 1 2 3 4 5 6 7 8 9 10 11 12 13 14 15 16 17 18 19 20 21 22 23 24 25 26 27 28 29 30 31 32 33 34 35 36 37 38 39 40 41 42 43 44 45 46 47 48 49 50
000
ASUS43 KEAX 041410
RWREAX

WEATHER ROUNDUP FOR EASTERN KANSAS AND NORTHWEST MISSOURI
NATIONAL WEATHER SERVICE KANSAS CITY/PLEASANT HILL MO
900 AM CDT FRI SEP 04 2015

KSZ040-057-103>105-MOZ028-029-037-043-041500-
...KANSAS CITY METROPOLITAN AREA...

CITY           SKY/WX    TMP DP  RH WIND       PRES   REMARKS
K.C. INTL      MOSUNNY   79  68  69 S12       29.99R
K.C. DOWNTOWN  MOSUNNY   81  68  64 S9        29.98R
LEES SUMMIT    MOSUNNY   77  67  71 S6        30.01R
OLATHE - IXD   MOSUNNY   74  68  81 S8        30.00R
OLATHE - OJC   MOSUNNY   74  69  85 S8        30.00R
LAWRENCE       MOSUNNY   77  70  79 S5        29.98R

$$

MOZ001>008-011>017-020>025-030>033-038>040-044>046-053-054-041500-
...NORTHERN AND CENTRAL MISSOURI...

CITY           SKY/WX    TMP DP  RH WIND       PRES   REMARKS
ST. JOSEPH     SUNNY     77  70  79 S6        29.98R
MOSBY          SUNNY     77  68  73 S5        29.99S
WARRENSBURG    MOSUNNY   77  68  73 S7        30.00R
WHITEMAN AFB   SUNNY     79  69  72 SW10      30.00R
CLINTON          N/A     81  70  69 CALM      30.02R
SEDALIA        MOSUNNY   79  70  74 S7        30.02R
WARSAW         NOT AVBL
CHILLICOTHE      N/A     78  71  79 S6        30.00S
KIRKSVILLE     SUNNY     78  70  76 SW8       30.03R

$$

MOZ041-047>049-056>058-063>065-088>090-097-041500-
...EASTERN AND SOUTHERN MISSOURI...

CITY           SKY/WX    TMP DP  RH WIND       PRES   REMARKS
ST. LOUIS INTL PTSUNNY   84  69  60 W5        30.03R
SPIRIT OF STL  PTSUNNY   79  74  84 CALM      30.02R
COLUMBIA       MOSUNNY   75  70  84 S6        30.03R
JEFFERSON CITY MOSUNNY   76  70  82 SE3       30.02R
ROLLA          MOSUNNY   76  68  76 S7        30.04R
OSAGE BEACH    MOSUNNY   75  66  73 S3        30.04R
SPRINGFIELD    PTSUNNY   77  69  76 S8        30.04R
BRANSON        PTSUNNY   75  68  78 CALM      30.06R
JOPLIN         MOSUNNY   78  68  71 S10       30.02R
WEST PLAINS    MOSUNNY   78  69  73 S3        30.08R

$$

IAZ060-094-KSZ022-034>040-054-083-096-NEZ052-066-093-041500-
...KANSAS...SOUTHEAST NEBRASKA AND IOWA...

CITY           SKY/WX    TMP DP  RH WIND       PRES   REMARKS
TOPEKA         SUNNY     78  69  73 S6        29.97R
MANHATTAN      SUNNY     80  66  62 S7        29.94R
EMPORIA        SUNNY     75  68  78 S12       29.98R
CHANUTE        SUNNY     76  69  79 S8        30.00R
WICHITA        MOSUNNY   77  65  66 S10       29.96R
OMAHA          CLOUDY    75  69  81 S12       29.93S
LINCOLN        CLOUDY    73  69  87 SE8       29.93R
FALLS CITY     SUNNY     79  69  71 S8        29.95R
LAMONI         MOSUNNY   77  70  79 S9        30.00R
DES MOINES     MOSUNNY   77  68  73 S8        29.97R

$$



USA.gov is the U.S. government's official web portal to all federal, state and local government web resources and services.